Time,TemperatureF,DewpointF,PressureIn,WindDirection,WindDirectionDegrees,WindSpeedMPH,WindSpeedGustMPH,Humidity,HourlyPrecipIn,Conditions,Clouds,dailyrainin,SolarRadiationWatts/m^2,SoftwareType,DateUTC
2013-04-13 00:03:00,53.0,38.0,-100.00,South,191,2.0,6.0,56,0.00,,,0.64,0.000000,,2013-04-13 04:03:00,
2013-04-13 00:33:00,48.0,40.0,-100.00,WSW,248,2.0,3.0,73,0.00,,,0.32,0.000000,,2013-04-13 04:33:00,
2013-04-13 00:42:00,48.0,40.0,-100.00,WSW,248,2.0,3.0,73,0.00,,,0.32,0.000000,,2013-04-13 04:42:00,
2013-04-13 00:53:00,48.0,40.0,-100.00,WSW,248,2.0,3.0,73,0.00,,,0.32,0.000000,,2013-04-13 04:53:00,
2013-04-13 01:03:00,48.0,40.0,-100.00,WSW,248,2.0,3.0,73,0.00,,,0.32,0.000000,,2013-04-13 05:03:00,
2013-04-13 01:32:00,49.0,40.0,-100.00,WSW,249,1.0,3.0,71,0.00,,,0.19,0.000000,,2013-04-13 05:32:00,
2013-04-13 01:43:00,49.0,40.0,-100.00,WSW,249,1.0,3.0,71,0.00,,,0.19,0.000000,,2013-04-13 05:43:00,
2013-04-13 01:53:00,49.0,40.0,-100.00,WSW,249,1.0,3.0,71,0.00,,,0.19,0.000000,,2013-04-13 05:53:00,
2013-04-13 02:02:00,49.0,40.0,-100.00,WSW,249,1.0,3.0,71,0.00,,,0.19,0.000000,,2013-04-13 06:02:00,
2013-04-13 02:36:00,47.0,41.0,-100.00,SSW,200,1.0,3.0,81,0.00,,,0.12,0.000000,,2013-04-13 06:36:00,
2013-04-13 02:49:00,47.0,41.0,-100.00,SSW,200,1.0,3.0,81,0.00,,,0.12,0.000000,,2013-04-13 06:49:00,
2013-04-13 03:05:00,46.0,41.0,-100.00,SSW,206,1.0,3.0,82,0.00,,,0.12,0.000000,,2013-04-13 07:05:00,
2013-04-13 03:37:00,46.0,41.0,-100.00,SSW,206,1.0,3.0,82,0.00,,,0.12,0.000000,,2013-04-13 07:37:00,
2013-04-13 03:46:00,46.0,41.0,-100.00,SSW,206,1.0,3.0,82,0.00,,,0.12,0.000000,,2013-04-13 07:46:00,
2013-04-13 03:57:00,46.0,41.0,-100.00,SSW,206,1.0,3.0,82,0.00,,,0.12,0.000000,,2013-04-13 07:57:00,
2013-04-13 04:05:00,44.0,41.0,-100.00,SSW,197,1.0,4.0,90,0.00,,,0.12,0.000000,,2013-04-13 08:05:00,
2013-04-13 04:35:00,44.0,41.0,-100.00,SSW,197,1.0,4.0,90,0.00,,,0.12,0.000000,,2013-04-13 08:35:00,
2013-04-13 04:47:00,44.0,41.0,-100.00,SSW,197,1.0,4.0,90,0.00,,,0.12,0.000000,,2013-04-13 08:47:00,
2013-04-13 04:55:00,44.0,41.0,-100.00,SSW,197,1.0,4.0,90,0.00,,,0.12,0.000000,,2013-04-13 08:55:00,
2013-04-13 05:05:00,43.0,41.0,-100.00,SW,217,1.0,3.0,92,0.00,,,0.00,0.000000,,2013-04-13 09:05:00,
2013-04-13 05:38:00,43.0,41.0,-100.00,SW,217,1.0,3.0,92,0.00,,,0.00,0.000000,,2013-04-13 09:38:00,
2013-04-13 05:53:00,43.0,41.0,-100.00,SW,217,1.0,3.0,92,0.00,,,0.00,0.000000,,2013-04-13 09:53:00,
2013-04-13 06:05:00,42.0,40.0,-100.00,SW,222,1.0,3.0,93,0.00,,,0.00,0.000000,,2013-04-13 10:05:00,
2013-04-13 06:38:00,42.0,40.0,-100.00,SW,222,1.0,3.0,93,0.00,,,0.00,0.000000,,2013-04-13 10:38:00,
2013-04-13 06:51:00,42.0,40.0,-100.00,SW,222,1.0,3.0,93,0.00,,,0.00,0.000000,,2013-04-13 10:51:00,
2013-04-13 07:05:00,42.0,39.0,-100.00,SSW,202,1.0,4.0,90,0.00,,,0.00,0.000000,,2013-04-13 11:05:00,
2013-04-13 07:35:00,42.0,39.0,-100.00,SSW,202,1.0,4.0,90,0.00,,,0.00,0.000000,,2013-04-13 11:35:00,
2013-04-13 07:46:00,42.0,39.0,-100.00,SSW,202,1.0,4.0,90,0.00,,,0.00,0.000000,,2013-04-13 11:46:00,
2013-04-13 07:54:00,42.0,39.0,-100.00,SSW,202,1.0,4.0,90,0.00,,,0.00,0.000000,,2013-04-13 11:54:00,
2013-04-13 08:05:00,47.0,41.0,-100.00,SW,235,2.0,3.0,81,0.00,,,0.00,71.000000,,2013-04-13 12:05:00,
2013-04-13 08:49:00,47.0,41.0,-100.00,SW,235,2.0,3.0,81,0.00,,,0.00,71.000000,,2013-04-13 12:49:00,
2013-04-13 09:05:00,55.0,42.0,-100.00,SW,231,3.0,5.0,61,0.00,,,0.00,266.000000,,2013-04-13 13:05:00,
2013-04-13 09:37:00,55.0,42.0,-100.00,SW,231,3.0,5.0,61,0.00,,,0.00,266.000000,,2013-04-13 13:37:00,
2013-04-13 09:49:00,55.0,42.0,-100.00,SW,231,3.0,5.0,61,0.00,,,0.00,266.000000,,2013-04-13 13:49:00,
2013-04-13 09:58:00,55.0,42.0,-100.00,SW,231,3.0,5.0,61,0.00,,,0.00,266.000000,,2013-04-13 13:58:00,
2013-04-13 10:05:00,58.0,39.0,-100.00,WSW,252,5.0,9.0,49,0.00,,,0.00,462.000000,,2013-04-13 14:05:00,
2013-04-13 10:39:00,58.0,39.0,-100.00,WSW,252,5.0,9.0,49,0.00,,,0.00,462.000000,,2013-04-13 14:39:00,
2013-04-13 10:48:00,58.0,39.0,-100.00,WSW,252,5.0,9.0,49,0.00,,,0.00,462.000000,,2013-04-13 14:48:00,
2013-04-13 11:00:00,58.0,39.0,-100.00,WSW,252,5.0,9.0,49,0.00,,,0.00,462.000000,,2013-04-13 15:00:00,
2013-04-13 11:05:00,59.0,37.0,-100.00,WSW,256,6.0,10.0,43,0.00,,,0.00,628.000000,,2013-04-13 15:05:00,
2013-04-13 11:38:00,59.0,37.0,-100.00,WSW,256,6.0,10.0,43,0.00,,,0.00,628.000000,,2013-04-13 15:38:00,
2013-04-13 11:45:00,59.0,37.0,-100.00,WSW,256,6.0,10.0,43,0.00,,,0.00,628.000000,,2013-04-13 15:45:00,
2013-04-13 11:58:00,59.0,37.0,-100.00,WSW,256,6.0,10.0,43,0.00,,,0.00,628.000000,,2013-04-13 15:58:00,
2013-04-13 12:05:00,62.0,37.0,-100.00,WSW,251,6.0,12.0,40,0.00,,,0.00,771.000000,,2013-04-13 16:05:00,
2013-04-13 12:37:00,62.0,37.0,-100.00,WSW,251,6.0,12.0,40,0.00,,,0.00,771.000000,,2013-04-13 16:37:00,
2013-04-13 12:48:00,62.0,37.0,-100.00,WSW,251,6.0,12.0,40,0.00,,,0.00,771.000000,,2013-04-13 16:48:00,
2013-04-13 12:58:00,62.0,37.0,-100.00,WSW,251,6.0,12.0,40,0.00,,,0.00,771.000000,,2013-04-13 16:58:00,
2013-04-13 13:05:00,64.0,38.0,-100.00,North,354,5.0,11.0,38,0.00,,,0.00,843.000000,,2013-04-13 17:05:00,
2013-04-13 13:38:00,64.0,38.0,-100.00,North,354,5.0,11.0,38,0.00,,,0.00,843.000000,,2013-04-13 17:38:00,
2013-04-13 13:45:00,64.0,38.0,-100.00,North,354,5.0,11.0,38,0.00,,,0.00,843.000000,,2013-04-13 17:45:00,
2013-04-13 14:04:00,64.0,38.0,-100.00,North,354,5.0,11.0,38,0.00,,,0.00,843.000000,,2013-04-13 18:04:00,
2013-04-13 14:33:00,67.0,35.0,-100.00,West,273,5.0,12.0,31,0.00,,,0.00,848.000000,,2013-04-13 18:33:00,
2013-04-13 14:42:00,67.0,35.0,-100.00,West,273,5.0,12.0,31,0.00,,,0.00,848.000000,,2013-04-13 18:42:00,
2013-04-13 14:53:00,67.0,35.0,-100.00,West,273,5.0,12.0,31,0.00,,,0.00,848.000000,,2013-04-13 18:53:00,
2013-04-13 15:03:00,67.0,35.0,-100.00,West,273,5.0,12.0,31,0.00,,,0.00,848.000000,,2013-04-13 19:03:00,
2013-04-13 15:33:00,69.0,36.0,-100.00,WSW,252,4.0,10.0,30,0.00,,,0.00,793.000000,,2013-04-13 19:33:00,
2013-04-13 15:42:00,69.0,36.0,-100.00,WSW,252,4.0,10.0,30,0.00,,,0.00,793.000000,,2013-04-13 19:42:00,
2013-04-13 15:53:00,69.0,36.0,-100.00,WSW,252,4.0,10.0,30,0.00,,,0.00,793.000000,,2013-04-13 19:53:00,
2013-04-13 16:02:00,69.0,36.0,-100.00,WSW,252,4.0,10.0,30,0.00,,,0.00,793.000000,,2013-04-13 20:02:00,
2013-04-13 16:32:00,70.0,36.0,-100.00,NNE,23,3.0,9.0,29,0.00,,,0.00,740.000000,,2013-04-13 20:32:00,
2013-04-13 16:42:00,70.0,36.0,-100.00,NNE,23,3.0,9.0,29,0.00,,,0.00,740.000000,,2013-04-13 20:42:00,
2013-04-13 16:53:00,70.0,36.0,-100.00,NNE,23,3.0,9.0,29,0.00,,,0.00,740.000000,,2013-04-13 20:53:00,
2013-04-13 17:02:00,70.0,36.0,-100.00,NNE,23,3.0,9.0,29,0.00,,,0.00,740.000000,,2013-04-13 21:02:00,
2013-04-13 17:33:00,71.0,34.0,-100.00,West,266,6.0,14.0,26,0.00,,,0.00,591.000000,,2013-04-13 21:33:00,
2013-04-13 17:43:00,71.0,34.0,-100.00,West,266,6.0,14.0,26,0.00,,,0.00,591.000000,,2013-04-13 21:43:00,
2013-04-13 17:53:00,71.0,34.0,-100.00,West,266,6.0,14.0,26,0.00,,,0.00,591.000000,,2013-04-13 21:53:00,
2013-04-13 18:03:00,71.0,34.0,-100.00,West,266,6.0,14.0,26,0.00,,,0.00,591.000000,,2013-04-13 22:03:00,
2013-04-13 18:33:00,71.0,34.0,-100.00,WSW,250,3.0,9.0,26,0.00,,,0.00,425.000000,,2013-04-13 22:33:00,
2013-04-13 18:42:00,71.0,34.0,-100.00,WSW,250,3.0,9.0,26,0.00,,,0.00,425.000000,,2013-04-13 22:42:00,
2013-04-13 18:53:00,71.0,34.0,-100.00,WSW,250,3.0,9.0,26,0.00,,,0.00,425.000000,,2013-04-13 22:53:00,
2013-04-13 19:02:00,71.0,34.0,-100.00,WSW,250,3.0,9.0,26,0.00,,,0.00,425.000000,,2013-04-13 23:02:00,
2013-04-13 19:33:00,69.0,34.0,-100.00,WNW,284,2.0,10.0,27,0.00,,,0.00,210.000000,,2013-04-13 23:33:00,
2013-04-13 19:43:00,69.0,34.0,-100.00,WNW,284,2.0,10.0,27,0.00,,,0.00,210.000000,,2013-04-13 23:43:00,
2013-04-13 19:53:00,69.0,34.0,-100.00,WNW,284,2.0,10.0,27,0.00,,,0.00,210.000000,,2013-04-13 23:53:00,
2013-04-13 20:03:00,69.0,34.0,-100.00,WNW,284,2.0,10.0,27,0.00,,,0.00,210.000000,,2013-04-14 00:03:00,
2013-04-13 21:33:00,58.0,39.0,-100.00,South,170,2.0,3.0,49,-99.99,,,0.00,0.000000,,2013-04-14 01:33:00,
2013-04-13 21:43:00,58.0,39.0,-100.00,South,170,2.0,3.0,49,-99.99,,,0.00,0.000000,,2013-04-14 01:43:00,
2013-04-13 21:53:00,58.0,39.0,-100.00,South,170,2.0,3.0,49,-99.99,,,0.00,0.000000,,2013-04-14 01:53:00,
2013-04-13 22:02:00,58.0,39.0,-100.00,South,170,2.0,3.0,49,-99.99,,,0.00,0.000000,,2013-04-14 02:02:00,
2013-04-13 22:33:00,54.0,40.0,-100.00,South,191,2.0,4.0,60,0.00,,,0.00,0.000000,,2013-04-14 02:33:00,
2013-04-13 22:43:00,54.0,40.0,-100.00,South,191,2.0,4.0,60,0.00,,,0.00,0.000000,,2013-04-14 02:43:00,
2013-04-13 22:53:00,54.0,40.0,-100.00,South,191,2.0,4.0,60,0.00,,,0.00,0.000000,,2013-04-14 02:53:00,
2013-04-13 23:03:00,54.0,40.0,-100.00,South,191,2.0,4.0,60,0.00,,,0.00,0.000000,,2013-04-14 03:03:00,
2013-04-13 23:33:00,51.0,42.0,-100.00,SSW,200,1.0,3.0,72,0.00,,,0.00,0.000000,,2013-04-14 03:33:00,
2013-04-13 23:43:00,51.0,42.0,-100.00,SSW,200,1.0,3.0,72,0.00,,,0.00,0.000000,,2013-04-14 03:43:00,
2013-04-13 23:53:00,51.0,42.0,-100.00,SSW,200,1.0,3.0,72,0.00,,,0.00,0.000000,,2013-04-14 03:53:00,